TimeMDT,TemperatureF,Dew PointF,Humidity,Sea Level PressureIn,VisibilityMPH,Wind Direction,Wind SpeedMPH,Gust SpeedMPH,PrecipitationIn,Events,Conditions,WindDirDegrees,DateUTC
12:53 AM,28.0,21.9,78,30.23,10.0,Calm,Calm,-,N/A,,Clear,0,2012-10-10 06:53:00
1:53 AM,24.1,21.0,88,30.24,10.0,Calm,Calm,-,N/A,,Clear,0,2012-10-10 07:53:00
2:53 AM,25.0,21.0,85,30.20,10.0,North,3.5,-,N/A,,Clear,350,2012-10-10 08:53:00
3:53 AM,25.0,21.0,85,30.19,10.0,Calm,Calm,-,N/A,,Clear,0,2012-10-10 09:53:00
4:53 AM,21.9,18.0,85,30.18,10.0,Calm,Calm,-,N/A,,Clear,0,2012-10-10 10:53:00
5:53 AM,21.0,18.0,88,30.19,10.0,Calm,Calm,-,N/A,,Clear,0,2012-10-10 11:53:00
7:53 AM,24.1,21.0,88,30.19,10.0,Calm,Calm,-,N/A,,Clear,0,2012-10-10 13:53:00
8:53 AM,30.0,26.1,85,30.17,10.0,Calm,Calm,-,N/A,,Clear,0,2012-10-10 14:53:00
9:53 AM,37.9,28.0,68,30.12,10.0,Calm,Calm,-,N/A,,Clear,0,2012-10-10 15:53:00
10:53 AM,46.0,28.9,51,30.08,10.0,Variable,3.5,-,N/A,,Clear,0,2012-10-10 16:53:00
11:53 AM,52.0,30.0,43,30.05,10.0,Calm,Calm,-,N/A,,Clear,0,2012-10-10 17:53:00
12:53 PM,59.0,28.9,32,30.00,10.0,West,3.5,-,N/A,,Clear,260,2012-10-10 18:53:00
1:53 PM,66.0,26.1,22,29.95,10.0,West,13.8,-,N/A,,Clear,270,2012-10-10 19:53:00
2:53 PM,69.1,21.9,17,29.91,10.0,WNW,13.8,-,N/A,,Clear,300,2012-10-10 20:53:00
3:53 PM,70.0,21.9,16,29.88,10.0,WNW,15.0,-,N/A,,Clear,300,2012-10-10 21:53:00
4:53 PM,69.1,21.9,17,29.89,10.0,WNW,12.7,-,N/A,,Clear,300,2012-10-10 22:53:00
5:53 PM,66.0,24.1,20,29.90,10.0,WNW,3.5,-,N/A,,Clear,290,2012-10-10 23:53:00
6:53 PM,53.1,24.1,32,29.95,10.0,Calm,Calm,-,N/A,,Clear,0,2012-10-11 00:53:00
7:53 PM,48.9,24.1,38,29.98,10.0,SE,11.5,-,N/A,,Clear,130,2012-10-11 01:53:00
8:53 PM,48.9,25.0,39,29.96,10.0,East,8.1,-,N/A,,Clear,100,2012-10-11 02:53:00
9:53 PM,50.0,26.1,39,29.94,10.0,East,10.4,-,N/A,,Clear,100,2012-10-11 03:53:00
10:53 PM,43.0,26.1,51,29.93,10.0,South,3.5,-,N/A,,Clear,180,2012-10-11 04:53:00
11:53 PM,42.1,25.0,51,29.91,10.0,Calm,Calm,-,N/A,,Clear,0,2012-10-11 05:53:00